Regional Weather Roundup
Issued by NWS

Home | Current Version | Previous Version | Text Only | Print | Product List | Glossary Off
Versions: 1 2 3 4 5 6 7 8 9 10 11 12 13 14 15 16 17 18 19 20 21 22 23 24 25 26 27 28 29 30 31 32 33 34 35 36 37 38 39 40 41 42 43 44 45 46 47 48 49 50

000
ASUS43 KTOP 211708
RWRKS

WEATHER ROUNDUP FOR KANSAS
NATIONAL WEATHER SERVICE GOODLAND KS
1200 PM CDT THU SEP 21 2017

NOTE:  "FAIR" INDICATES FEW OR NO CLOUDS BELOW 12,000 FEET WITH NO
SIGNIFICANT WEATHER AND/OR OBSTRUCTIONS TO VISIBILITY.

KSZ001>006-013>018-027>032-041>047-211800-
NORTHWEST KANSAS

CITY           SKY/WX    TMP DP  RH WIND       PRES   REMARKS
GOODLAND       SUNNY     85  42  22 S15       29.76F
HAYS           SUNNY     88  63  43 S13G23    29.79F
HILL CITY      SUNNY     88  52  29 S17G24    29.76F
RUSSELL        SUNNY     89  65  44 S22       29.78F
$$

KSZ061>065-074>080-084>089-211800-
SOUTHWEST KANSAS

CITY           SKY/WX    TMP DP  RH WIND       PRES   REMARKS
DODGE CITY     SUNNY     87  54  32 S18       29.83F
ELKHART          N/A     85  49  28 S10         N/A
GARDEN CITY    SUNNY     84  48  28 S9        29.81F
GREAT BEND     SUNNY     88  65  46 S21G28    29.81F
LIBERAL        SUNNY     82  52  35 MISG        N/A
PRATT          SUNNY     87  64  46 S20G26    29.84F
$$

KSZ066>073-081>083-090>101-211800-
SOUTHEAST KANSAS

CITY           SKY/WX    TMP DP  RH WIND       PRES   REMARKS
CHANUTE        PTSUNNY   86  74  67 S21       29.93S
COFFEYVILLE    SUNNY     87  74  64 S16       29.92S HX  95
HUTCHINSON     SUNNY     90  70  51 S20G25    29.83S HX  95
MEDICINE LODGE   N/A     88  69  53 S8G16     29.82F
NEWTON         SUNNY     87  71  58 S21       29.86S
WICHITA INTL   MOSUNNY   89  72  56 S20G29    29.84F HX  96
WICHITA JABRA  SUNNY     87  72  60 S16G26    29.86S
WICHITA MCCONL SUNNY     88  70  54 S18G25    29.86S
WINFIELD       SUNNY     87  74  64 S16       29.88F HX  95
$$

KSZ007>012-019>026-033>040-048>060-102>105-211800-
NORTHEAST KANSAS

CITY           SKY/WX    TMP DP  RH WIND       PRES   REMARKS
CONCORDIA      SUNNY     85  73  67 S16       29.81F
EMPORIA        SUNNY     86  72  62 S17G23    29.88F
LAWRENCE       SUNNY     87  74  64 SE16G28   29.89F HX  95
MANHATTAN      SUNNY     90  72  55 S12G22    29.83F HX  97
MARYSVILLE     SUNNY     88  72  58 S14G21    29.84F
OLATHE IND     SUNNY     85  73  67 S18       29.93F
OLATHE EXE     SUNNY     84  74  71 S16       29.93F
SALINA         SUNNY     91  69  48 S16G24    29.81F HX  96
TOPEKA BILLARD MOSUNNY   86  75  69 S14       29.88S HX  95
TOPEKA FORBES  SUNNY     87  74  64 S18G24    29.88F HX  95
$$




USA.gov is the U.S. government's official web portal to all federal, state and local government web resources and services.